Regional Weather Roundup
Issued by NWS

Home | Current Version | Previous Version | Text Only | Print | Product List | Glossary On
Versions: 1 2 3 4 5 6 7 8 9 10 11 12 13 14 15 16 17 18 19 20 21 22 23 24 25 26 27 28 29 30 31 32 33 34 35 36 37 38 39 40 41 42 43 44 45 46 47 48 49 50
000
ASUS45 KBOI 030310
RWRID

IDAHO REGIONAL WEATHER ROUNDUP
NATIONAL WEATHER SERVICE BOISE ID
900 PM MDT THU JUL 02 2015

NOTE: "FAIR" INDICATES FEW OR NO CLOUDS BELOW 12000 FEET
WITH NO SIGNIFICANT WEATHER AND/OR OBSTRUCTIONS TO VISIBILITY

IDZ012-014-030400-
SOUTHWEST IDAHO


CITY           SKY/WX    TMP DP  RH WIND       PRES   REMARKS
BOISE          CLEAR     98  42  14 N7        29.86S HX  94
CALDWELL       CLEAR     95  46  18 NW6       29.85R HX  91
MOUNTAIN HOME  CLEAR     98  36  11 NW10      29.86S HX  93
$$

IDZ016-017-030400-
SOUTHCENTRAL IDAHO


CITY           SKY/WX    TMP DP  RH WIND       PRES   REMARKS
BURLEY         CLEAR     83  57  41 S8        29.95F
JEROME         CLEAR     87  47  24 W7        29.95S
TWIN FALLS     CLEAR     90  44  20 W9        29.94F
$$

IDZ019>023-030400-
SOUTHEAST IDAHO


CITY           SKY/WX    TMP DP  RH WIND       PRES   REMARKS
IDAHO FALLS    CLEAR     78  56  46 CALM      30.02S
POCATELLO      PTCLDY    86  43  22 SW7       29.99S
REXBURG        CLEAR     83  50  31 CALM      30.04R
$$

IDZ006-010-011-018-031-032-030400-
CENTRAL IDAHO MOUNTAINS


CITY           SKY/WX    TMP DP  RH WIND       PRES   REMARKS
MCCALL         CLEAR     84  41  21 NW8       30.07S
HAILEY         CLEAR     82  46  28 W3        30.04S
STANLEY          N/A     79  36  21 NW3       30.19S
SALMON         CLEAR     84  45  24 N10       29.93R
CHALLIS        CLEAR     83  43  24 N8        30.02R
$$

IDZ002-004-006-007-026-030400-
NORTHERN IDAHO


CITY           SKY/WX    TMP DP  RH WIND       PRES   REMARKS
LEWISTON       CLEAR     97  42  15 NE6       29.84S HX  93
LOWELL           N/A     77  52  41 N5        29.86R
COEUR D`ALENE  CLEAR     90  46  22 N5        29.89F
MULLAN PASS    CLEAR     73  39  29 NW6       30.19F
$$


USA.gov is the U.S. government's official web portal to all federal, state and local government web resources and services.